map of TWU home
Great Circle Mapper logo
TWU - Airport
Location
City:  Tawau, Sabah, Malaysia
ICAO:WBKW
IATA:TWU

Details
Type:Airport (Aerodrome, Airfield)
Use:Public/Civil
Latitude:418'48"N (4.313369)
Longitude:11807'19"E (118.121953)
Datum:WGS 1984
Elevation:57 ft (17 m)
Variation:0.14W (WMM2015 magnetic declination)
-0.09 annual change
Runways:1
Longest:8800 × 155 ft (2682 × 47 m), paved

Time
Time Zone:UTC+8
Local Time:

Weather
METAR:WBKW 260900Z 14006KT 9999 FEW016CB BKN300 30/23 Q1007
TAF:WBKW 251700Z 2518/2618 35005KT 9999 FEW017CB SCT140 BKN270
TEMPO 2520/2523 4000 RA FEW015 FEW016CB SCT040

Related Locations
Nearby:
Farthest:CIZ: 12362 mi / 19895 km
Coari, AM, BR

Find:

   beyond  
but within

Other Information
Maps:
NOTAMs:
Links:
Sources:

  
flag of Malaysia
flag of Sabah
  

Sectional Chart

Flight Planning
at skyvector.com

Satellite Image

Google Maps Satellite view

 

Copyright © 2004-2016 Karl L. Swartz. All rights reserved.
The Great Circle Mapper name and logo are trademarks of the Great Circle Mapper.
All other trademarks mentioned herein belong to their respective owners.
Please see credits for attibutions and further copyright information.

  Follow gcmap on Facebook Follow gcmap on Twitter Follow gcmap on Google+ GCmap on LinkedIn

hCard Microformat

Geo Microformat